Find Starlink 30849

NORAD ID: 58245 Int'l Des: 2023-171 Owner: SPXS Country: US Constellation: starlink operational
LEOCIRCULAR

リアルタイム位置

3D地球を読み込み中...

Starlink 30849について

説明を読み込み中...

次回通過

Passes for default location (London). Set your location on the main map for personalized predictions.

高度履歴

Loading altitude history...

軌道要素

1 58245U 23171R 26126.55128981 .00001715 00000-0 71812-4 0 9991
2 58245 43.0027 318.4566 0001433 269.8241 90.2446 15.27582761138582
Epoch: May 6, 2026 • Age: 20 hours

現在のステータス

高度 482.2 km
速度 7.63 km/s
衛星直下点 7.52°N, 48.7°W
打ち上げ日 Nov 8, 2023
運用期間 2.4 years
タイプ internet

技術仕様

分類 Payload
質量 730.00 kg
乾燥質量 700.00 kg
総質量 730.00 kg
長さ 0.30 m
直径 4.10 m
スパン 29.00 m
形状 Box + pan
製造者 SPXS
バスタイプ Starlink V2M
フェーズステータス In Orbit
所有者/国 SPXS/US

Most Searched